Probability
0 0 0 0 0 0 0 0 0 0 0 0 0 0 0 0 0 0 0 0 0 0 0 0 0 0 0 0 0 0 0 0 0 0 0 0 0 0 0 0 0 0 0 0
0 0 0 0 0 0 0 0 0 0 0 0 0 0 0 0 0 0 0 0 0 0 0 0 0 0 0 0 0 0 0 0 0 0 0 0 0 0 0 0 0 0 0 0
0 0 0 0 0 0 0 0 0 0 0 0 0 0 0 0 0 0 0 0 0 0 0 0 0 0 0 0 0 0 0 0 0 0 0 0 0 0 0 0 0 0 0 0
0 0 0 0 0 0 0 0 0 0 0 0 0 0 0 0 0 0 0 0 0 0 0 0 0 0 0 0 0 0 0 0 0 0 0 0 0 0 0 0 0 0 0 0
0 0 0 0 0 0 0 0 0 0 0 0 0 0 0 0 0 0 0 0 0 0 0 0 0 0 0 0 0 0 0 0 0 0 0 0 0 0 0 0 0 0 0 0
0 0 0 0 0 0 0 0 0 0 0 0 0 0 0 0 0 0 0 0 0 0 0 0 0 0 0 0 0 0 0 0 0 0 0 0 0 0 0 0 0 0 0 0
0 0 0 0 0 0 0 0 0 0 0 0 0 0 0 0 0 0 0 0 0 0 0 0 0 0 0 0 0 0 0 0 0 0 0 0 0 0 0 0 0 0 0 0
0 0 0 0 0 0 0 0 0 0 0 0 0 0 0 0 0 0 0 0 0 0 0 0 0 0 0 0 0 0 0 0 0 0 0 0 0 0 0 0 0 0 0 0
0 0 0 0 0 0 0 0 0 0 0 0 0 0 0 0 0 0 0 0 0 0 0 0 0 0 0 0 0 0 0 0 0 0 0 0 0 0 0 0 0 0 0 0
0 0 0 0 0 0 0 0 0 0 0 0 0 0 0 0 0 0 0 0 0 0 0 0 0 0 0 0 0 0 0 0 0 0 0 0 0 0 0 0 0 0 0 0
0 0 0 0 0 0 0 0 0 0 0 0 0 0 0 0 0 0 0 0 0 0 0 0 0 0 0 0 0 0 0 0 0 0 0 0 0 0 0 0 0 0 0 0
0 0 0 0 0 0 0 0 0 0 0 0 0 0 0 0 0 0 0 0 0 0 0 0 0 0 0 0 0 0 0 0 0 0 0 0 0 0 0 0 0 0 0 0
0 0 0 0 0 0 0 0 0 0 0 0 0 0 0 0 0 0 0 0 0 0 0 0 0 0 0 0 0 0 0 0 0 0 0 0 0 0 0 0 0 0 0 0
0 0 0 0 0 0 0 0 0 0 0 0 0 0 0 0 0 0 0 0 0 0 0 0 0 0 0 0 0 0 0 0 0 0 0 0 0 0 0 0 0 0 0 0
0 0 0 0 0 0 0 0 0 0 0 0 0 0 0 0 0 0 0 0 0 0 0 0 0 0 0 0 0 0 0 0 0 0 0 0 0 0 0 0 0 0 0 0
0 0 0 0 0 0 0 0 0 0 0 0 0 0 0 0 0 0 0 0 0 0 0 0 0 0 0 0 0 0 0 0 0 0 0 0 0 0 0 0 0 0 0 0
0 0 0 0 0 0 0 0 0 0 0 0 0 0 0 0 0 0 0 0 0 0 0 0 0 0 0 0 0 0 0 0 0 0 0 0 0 0 0 0 0 0 0 0
0 0 0 0 0 0 0 0 0 0 0 0 0 0 0 0 0 0 0 0 0 0 0 0 0 0 0 0 0 0 0 0 0 0 0 0 0 0 0 0 0 0 0 0
0 0 0 0 0 0 0 0 0 0 0 0 0 0 0 0 0 0 0 0 0 0 0 0 0 0 0 0 0 0 0 0 0 0 0 0 0 0 0 0 0 0 0 0
0 0 0 0 0 0 0 0 0 0 0 0 0 0 0 0 0 0 0 0 0 0 0 0 0 0 0 0 0 0 0 0 0 0 0 0 0 0 0 0 0 0 0 0
0 0 0 0 0 0 0 0 0 0 0 0 0 0 0 0 0 0 0 0 0 0 0 0 0 0 0 0 0 0 0 0 0 0 0 0 0 0 0 0 0 0 0 0
0 0 0 0 0 0 0 0 0 0 0 0 0 0 0 0 0 0 0 0 0 0 0 0 0 0 0 0 0 0 0 0 0 0 0 0 0 0 0 0 0 0 0 0
0 0 0 0 0 0 0 0 0 0 0 0 0 0 0 0 0 0 0 0 0 0 0 0 0 0 0 0 0 0 0 0 0 0 0 0 0 0 0 0 0 0 0 0
0 0 0 0 0 0 0 0 0 0 0 0 0 0 0 0 0 0 0 0 0 0 0 0 0 0 0 0 0 0 0 0 0 0 0 0 0 0 0 0 0 0 0 0
0 0 0 0 0 0 0 0 0 0 0 0 0 0 0 0 0 0 0 0 0 0 0 0 0 0 0 0 0 0 0 0 0 0 0 0 0 0 0 0 0 0 0 0
0 0 0 0 0 0 0 0 0 0 0 0 0 0 0 0 0 0 0 0 0 0 0 0 0 0 0 0 0 0 0 0 0 0 0 0 0 0 0 0 0 0 0 0
Wind_Speed
6 6 12 14 10 4 6 7 7 7 5 6 8 8 8 6 7 8 9 10 12 14 12 10 11 11 11 12 13 14 13 12 9 7 6 6 5 4 4 4 6 6 6 6
6 12 11 7 6 4 4 5 6 2 2 5 6 9 7 6 8 10 12 12 13 11 8 9 10 11 13 15 15 15 15 14 12 9 7 4 4 3 4 4 5 6 6 6
11 6 9 8 7 8 8 8 7 5 1 1 3 6 7 7 6 6 8 9 10 12 12 11 10 11 11 13 15 13 14 13 13 10 6 4 3 3 3 4 4 5 6 6
8 5 12 11 11 11 10 8 7 6 5 4 6 6 9 8 7 9 10 9 10 10 9 9 10 10 10 11 10 11 13 12 12 12 10 9 7 6 6 4 3 3 4 4
10 9 14 16 15 12 6 6 6 6 5 3 3 4 9 4 8 12 12 12 11 9 9 9 9 8 7 6 7 8 10 11 12 12 12 11 7 5 4 4 4 3 2 2
6 6 10 12 10 10 5 6 4 3 3 6 9 7 9 7 10 9 11 11 11 8 7 6 5 5 4 3 4 6 8 10 11 13 12 12 10 8 7 5 5 3 2 2
6 5 5 6 9 7 8 8 4 3 4 8 4 6 11 8 8 9 11 11 9 8 8 7 6 6 5 5 4 5 8 8 10 12 12 11 10 10 9 7 6 5 3 2
11 9 9 7 11 11 11 12 10 9 8 4 3 9 10 5 3 4 5 6 7 7 7 7 6 5 5 5 5 5 7 7 8 10 9 8 9 6 5 6 6 5 4 3
12 8 4 4 4 12 10 8 6 6 3 4 6 7 10 4 3 2 4 7 9 8 7 6 5 5 4 4 4 5 6 6 7 8 9 8 9 8 8 8 7 6 5 5
9 7 4 3 3 0 9 10 6 6 7 6 5 6 7 7 10 8 9 10 9 7 7 6 5 4 4 4 3 4 6 7 7 8 8 8 9 9 9 9 8 7 6 6
6 9 3 4 8 10 6 7 7 6 6 7 5 9 9 11 12 13 13 10 10 9 8 7 5 5 5 4 5 5 6 7 8 9 10 11 10 10 9 9 8 7 7 6
5 8 5 4 2 2 5 9 10 9 7 5 4 9 4 5 6 8 10 9 9 8 7 7 6 6 5 5 5 6 6 7 8 9 10 11 10 10 10 9 7 7 7 6
9 9 8 2 2 3 5 5 8 6 6 5 7 10 3 2 3 4 7 9 9 9 8 7 6 6 6 6 6 6 6 7 8 9 11 11 10 9 9 8 7 7 7 6
9 7 9 15 11 10 6 6 7 8 7 8 10 8 5 5 5 5 7 9 10 10 10 9 8 7 6 6 6 7 7 7 8 9 10 10 9 9 8 8 7 6 6 6
9 7 5 4 4 11 9 11 11 10 11 12 13 12 11 9 9 8 8 10 11 11 12 12 11 9 8 7 7 7 7 7 8 9 10 9 8 8 8 7 7 6 6 6
8 9 7 3 2 6 6 9 13 13 12 11 8 11 8 5 4 7 10 13 15 15 15 14 13 12 12 11 10 9 8 7 8 9 9 8 8 8 7 7 6 6 6 5
8 9 9 6 3 4 7 13 16 12 11 11 17 15 4 5 9 13 15 16 18 17 16 17 16 15 14 13 12 11 10 8 8 9 8 8 8 8 7 7 6 6 5 5
11 9 6 6 6 9 13 6 11 15 15 14 11 6 10 12 11 10 13 17 17 16 16 17 15 15 13 11 10 10 9 9 9 9 8 8 8 8 7 6 6 5 4 4
7 10 7 6 6 9 10 6 10 11 14 13 14 10 6 3 1 4 9 13 16 17 16 15 14 13 13 13 13 12 11 10 10 10 9 8 8 8 7 6 5 4 3 3
5 7 8 7 7 13 11 6 6 7 13 10 11 12 8 8 6 9 7 11 12 10 10 11 11 11 14 13 14 14 13 11 11 10 9 7 7 7 7 6 5 3 3 3
6 5 7 7 7 12 8 3 9 11 14 4 8 10 11 13 13 5 5 8 9 8 9 12 13 13 14 14 15 14 13 11 9 8 8 7 6 6 6 5 4 4 3 3
12 9 9 8 8 13 5 8 12 9 2 2 3 4 7 8 4 0 2 4 6 8 9 13 13 12 11 13 15 14 12 10 9 9 8 7 6 5 5 5 4 3 3 3
9 11 9 11 11 3 7 7 4 3 3 2 2 1 3 4 3 2 2 3 4 6 9 9 11 11 10 11 13 14 12 11 11 10 8 7 6 5 4 5 5 4 3 3
4 3 5 5 5 3 3 1 1 1 2 1 1 2 3 3 3 3 3 4 4 5 7 8 11 12 10 9 8 9 12 11 11 10 9 7 6 5 4 3 3 3 3 3
6 6 5 5 2 2 1 3 3 2 2 2 2 1 2 3 3 4 4 5 5 5 5 7 10 11 10 9 8 9 11 12 11 10 8 7 6 6 5 3 3 3 3 4
4 6 7 6 6 6 4 3 4 3 2 2 2 2 1 2 3 4 4 4 5 6 6 7 7 9 9 9 9 9 9 10 11 10 8 6 6 5 4 4 2 3 3 4
Wind_Direction
165 173 200 197 193 183 168 171 189 208 209 170 203 226 233 202 200 206 208 207 209 215 215 203 197 190 184 184 184 186 185 182 175 175 178 178 183 183 186 187 187 187 186 185
160 217 204 180 189 214 203 197 199 221 196 179 213 240 247 216 210 207 205 209 211 215 211 203 196 188 186 187 187 187 188 185 184 186 183 174 168 178 186 188 192 191 191 191
186 198 171 183 197 210 224 205 194 183 113 130 165 264 253 246 234 232 224 217 212 204 202 198 193 193 188 189 190 189 189 187 186 176 167 155 163 173 187 194 196 199 197 195
204 194 163 185 206 199 223 213 188 167 148 212 180 228 257 231 235 231 227 219 216 210 201 194 189 191 192 193 189 189 186 185 183 175 177 177 187 195 195 183 184 185 185 187
205 187 175 194 207 194 208 183 176 179 171 184 208 198 265 226 229 234 226 218 215 208 196 190 187 187 186 180 181 186 184 185 183 180 182 183 188 187 168 159 160 167 161 164
198 192 187 192 197 196 161 98 77 82 120 218 212 186 252 222 211 222 221 215 209 197 184 176 167 155 158 159 168 176 179 184 183 183 183 185 183 174 164 160 158 154 136 118
191 210 207 169 161 182 165 141 137 169 207 233 198 201 243 239 222 219 215 206 195 180 169 165 161 159 160 163 170 174 173 177 179 181 183 183 179 174 171 163 159 148 133 115
170 202 202 186 173 175 187 171 169 178 202 240 200 224 247 259 275 264 218 180 168 172 171 169 167 161 162 165 167 168 168 164 165 168 168 163 156 150 145 141 136 129 120 113
173 196 177 192 175 155 167 194 170 130 119 176 233 264 296 266 270 238 175 168 181 179 172 165 159 155 155 155 161 163 154 146 144 142 137 134 132 128 123 117 110 109 107 102
142 156 182 172 118 189 165 154 127 144 161 217 251 241 233 224 229 222 207 198 189 176 166 159 154 150 144 138 128 125 132 130 127 125 123 120 117 116 116 114 111 107 101 97
122 136 153 158 186 176 152 162 158 159 176 173 221 255 220 209 211 210 211 199 184 178 171 162 151 141 130 120 118 117 119 118 117 116 114 111 109 109 108 107 107 108 102 100
125 119 142 203 240 202 178 178 162 178 207 191 188 262 255 223 244 218 205 188 178 171 163 156 147 138 131 129 126 122 120 116 114 114 111 110 110 108 107 106 105 104 102 97
138 122 111 96 229 214 214 205 188 170 148 173 192 254 282 260 259 215 185 172 166 162 159 155 153 152 148 143 135 128 124 120 116 116 115 112 111 111 112 111 107 104 104 99
129 136 165 187 196 170 188 200 179 156 182 208 219 235 262 239 226 204 179 169 164 167 168 167 167 164 157 150 144 136 129 125 123 120 119 118 119 119 117 113 109 105 104 100
140 166 179 189 166 162 182 190 185 194 199 204 221 218 230 224 214 198 176 166 169 178 182 181 177 171 164 157 150 143 136 132 130 125 123 122 119 116 113 111 108 103 98 97
158 167 159 175 174 173 191 203 197 210 214 222 230 237 232 229 169 170 178 180 188 193 192 186 180 177 175 170 163 154 148 141 134 130 128 127 124 119 117 116 113 108 103 100
152 142 157 195 145 107 235 212 200 210 216 206 227 235 176 195 197 195 191 194 201 199 193 189 187 184 180 175 166 161 153 141 134 133 133 133 131 127 125 123 117 113 110 105
146 139 138 142 128 209 235 208 195 211 226 216 225 222 195 205 210 204 193 196 204 200 195 193 187 182 174 164 156 148 145 145 142 141 141 140 136 132 129 124 119 115 108 105
139 137 126 140 181 247 269 223 190 197 240 224 226 229 210 206 150 254 213 203 206 200 195 190 182 172 164 162 156 149 149 149 150 152 152 150 145 140 137 131 126 119 115 109
92 118 127 144 175 225 238 209 174 156 251 231 213 220 193 150 205 241 209 203 208 194 180 170 158 154 160 161 155 155 159 161 164 160 152 145 142 142 140 135 127 116 121 117
129 134 157 165 204 247 241 183 134 178 237 220 198 206 186 195 219 232 180 196 193 180 165 155 157 164 167 160 158 161 163 169 157 142 136 134 134 134 131 124 119 125 123 114
168 168 180 166 205 239 191 149 178 209 194 173 195 206 198 215 239 107 163 179 165 161 158 157 160 162 158 159 161 163 166 152 138 138 137 135 132 130 129 127 125 129 134 132
191 185 178 191 215 198 171 184 197 155 167 178 192 213 184 192 205 187 179 168 159 157 157 155 153 150 152 161 165 164 156 146 143 141 140 138 133 129 136 141 145 145 151 151
229 146 152 203 236 192 183 162 146 149 165 170 171 166 162 181 182 171 163 158 150 144 148 144 146 152 157 158 155 150 146 147 146 146 146 147 146 145 145 151 157 161 168 168
184 163 171 208 197 115 241 213 191 149 117 103 91 125 160 159 168 172 170 166 157 144 140 149 157 159 157 148 140 140 148 149 147 147 149 153 156 156 158 165 179 182 194 189
183 173 176 203 188 171 195 201 170 156 155 148 127 101 98 152 167 158 162 159 152 149 146 148 150 150 151 150 148 150 154 156 152 154 160 164 162 162 164 164 179 227 218 226